Regional Weather Roundup
Issued by NWS Green Bay, WI

Home | Current Version | Previous Version | Text Only | Print | Product List | Glossary On
Versions: 1 2 3 4 5 6 7 8 9 10 11 12 13 14 15 16 17 18 19 20 21 22 23 24 25 26 27 28 29 30 31 32 33 34 35 36 37 38 39 40 41 42 43 44 45 46 47 48 49 50
000
ASUS43 KGRB 260159
RWRGRB

NORTH-CENTRAL AND NORTHEAST WISCONSIN REGIONAL WEATHER ROUNDUP
NATIONAL WEATHER SERVICE GREEN BAY WI
800 PM CST TUE NOV 25 2014

WIZ005-009-010>012-018-019-260300-
NORTH CENTRAL WISCONSIN

CITY           SKY/WX    TMP DP  RH WIND       PRES   REMARKS
IRONWOOD       PTCLDY     3   3 100 CALM      30.01R
MANITOWISH WTR NOT AVBL
ARBOR VITAE    NOT AVBL
EAGLE RIVER    NOT AVBL
LAND O LAKES   NOT AVBL
RHINELANDER    CLEAR      7   3  84 CALM      30.02S FOG
PHILLIPS       NOT AVBL
ANTIGO         NOT AVBL
TOMAHAWK       NOT AVBL
MERRILL        NOT AVBL
$$

WIZ013-073-260300-
NORTHEAST WISCONSIN

CITY           SKY/WX    TMP DP  RH WIND       PRES   REMARKS
IRON MOUNTAIN  CLEAR      5   2  87 CALM      30.04S
MARINETTE      CLEAR     19  16  86 W5        30.10R
$$

WIZ017-030-035>037-045-260300-
CENTRAL WISCONSIN

CITY           SKY/WX    TMP DP  RH WIND       PRES   REMARKS
MEDFORD        NOT AVBL
WAUSAU         CLEAR     13  10  88 E3        30.04F
MOSINEE        CLEAR     10  10 100 CALM      30.06S
MARSHFIELD     CLOUDY    20  14  77 CALM      30.04F
WISC RAPIDS    CLOUDY    17  13  84 S3        30.09S
STEVENS POINT  NOT AVBL
WAUPACA        NOT AVBL
SHAWANO        NOT AVBL
CLINTONVILLE   NOT AVBL
$$

WIZ038-039-048-051-260300-
FOX VALLEY

CITY           SKY/WX    TMP DP  RH WIND       PRES   REMARKS
NWS GREEN BAY  CLOUDY    21  15  78 SW3       30.12S
APPLETON       CLOUDY    19  16  86 W6        30.11S
OSHKOSH        CLOUDY    19  14  81 CALM      30.12S
FOND DU LAC    CLOUDY    20  14  77 S3        30.12S
$$

WIZ022-050-052-260300-
EAST CENTRAL WISCONSIN

CITY           SKY/WX    TMP DP  RH WIND       PRES   REMARKS
STURGEON BAY   CLOUDY    23  16  74 SW6       30.11R
MANITOWOC      NOT AVBL
SHEBOYGAN      CLOUDY    20  15  81 W6        30.13S
$$

LMZ563-521-522-541>543-260300-
LAKESHORE

STATION/POSITION TIME  TEMP    WIND        PRES    VSBY  WAVE
                       AIR SEA DIR/SP/G                  HT/PER
                 (UTC) (F)     (DEG/KT/KT) (MB)    (MI)  (FT/S)
SHEBOYGAN LKSHOR 0100   21 36  230/  8/ 10 1021.9R
KEWAUNEE LKSHORE 0100   22     250/  6/ 10 1019.3R
ALGOMA MARINA    0100          300/  2/  5   N/A
TWO RIVERS CG    0100   21                 1020.2
NORTHPORT PIER   0100   26     170/  2/  3 1019.0R
N MID LAKE BUOY  0100   28 42  280/  8/ 10 1019.7R         1/ 6
SISTER BAY LKSHO 0100             CALM       N/A
CHAMBERS ISLAND  0100   26     220/  5/  8 1019.6R
MENOMINEE LKSHOR 0100   22     230/  8/ 11 1020.1R
$$


USA.gov is the U.S. government's official web portal to all federal, state and local government web resources and services.